[[{"header":{"parameterUnit":"m.s-1","parameterCategory":1,"la1":30.2991,"la2":30.254,"lo1":-89.0895,"lo2":-89.0444,"dy":0.0017,"dx":0.0017,"nx":28,"ny":28,"refTime":"2025-01-25T09:00:00:Z","depth":0,"parameterNumber":2,"parameterNumberName":"U-component_of_WINDS"},"data":[0,0,0,0,0,0,0,0,0,0,0,0,0,0,0,0,0,0,0,0,0,0,0,0,0,0,0,0,0,0,0,0,0,0,0,0,0,0,0,0,0,0,0,0,0,0,0,0,0,0,0,0,0,0,0,0,0,0,-3.1048,-3.1048,0,-3.1075,-3.1076,-3.1076,-3.1053,-3.1052,-3.1051,-3.105,-3.1077,-3.1079,-3.1081,0,0,0,0,0,0,0,0,0,0,0,0,0,-3.0975,-3.0977,-3.1048,-3.1048,-3.1048,-3.1075,-3.1076,-3.1076,-3.1053,-3.1052,-3.1051,-3.1049,-3.1077,-3.1079,-3.1081,0,0,0,0,0,0,0,0,0,0,0,0,0,-3.1005,-3.0977,-3.1048,-3.104,-3.104,-3.1075,-3.1076,-3.1076,-3.1053,-3.1052,-3.105,-3.1049,-3.1076,-3.1079,-3.1081,-3.1125,0,0,-3.1089,-3.109,0,0,0,0,0,0,0,0,-3.1003,-3.1008,-3.1041,-3.1041,-3.104,-3.1059,-3.106,-3.1093,-3.1053,-3.1048,-3.105,-3.1048,-3.1073,-3.1075,-3.1084,-3.1127,-3.1128,-3.1089,-3.109,-3.1091,-3.1092,0,0,0,0,0,0,0,-3.1001,-3.1006,-3.1059,-3.1041,-3.1041,-3.1035,-3.1038,-3.1066,-3.1068,-3.1048,-3.1047,-3.105,-3.1072,-3.1081,-3.1084,-3.1128,-3.1089,-3.1091,-3.1092,-3.1093,-3.1211,-3.1212,0,0,0,0,0,0,-3.1,-3.1005,-3.1058,-3.1059,-3.1018,-3.1038,-3.1041,-3.1055,-3.1068,-3.1068,-3.1052,-3.1049,-3.1078,-3.1081,-3.1085,-3.1138,-3.1091,-3.1094,-3.1095,-3.1209,-3.1211,-3.1213,0,0,0,0,0,0,-3.0999,-3.1005,-3.1057,-3.1032,-3.1038,-3.1041,-3.1056,-3.1056,-3.1065,-3.107,-3.107,-3.1061,-3.1077,-3.1081,-3.1116,-3.1138,-3.1095,-3.1097,-3.1207,-3.121,-3.1212,-3.1244,0,0,0,0,0,0,-3.0997,-3.1005,-3.1021,-3.1032,-3.1039,-3.1087,-3.1058,-3.1057,-3.1069,-3.1066,-3.1079,-3.1079,-3.1076,-3.1112,-3.1118,-3.1141,-3.1099,-3.1205,-3.1208,-3.1211,-3.1241,-3.1247,-3.1253,0,0,0,0,0,-3.0994,-3.1029,-3.1022,-3.1029,-3.106,-3.1088,-3.1092,-3.1088,-3.1071,-3.1088,-3.1092,-3.1079,-3.1136,-3.1116,-3.1123,-3.1146,-3.1204,-3.1207,-3.1211,-3.1238,-3.1246,-3.1253,0,0,0,0,0,0,-3.1019,-3.103,-3.1023,-3.1062,-3.1075,-3.1084,-3.1105,-3.1096,-3.1113,-3.111,-3.1104,-3.1107,-3.1143,-3.1149,-3.1127,-3.1191,-3.1167,-3.1172,-3.1185,-3.1193,-3.1199,-3.1196,-3.1101,0,0,0,0,0,-3.1029,-3.1051,-3.106,-3.1094,-3.11,-3.1102,-3.1114,-3.111,-3.1122,-3.1127,-3.1133,-3.1146,-3.1167,-3.118,-3.12,-3.1243,-3.1245,-3.1262,-3.1268,-3.1273,-3.1277,-3.13,-3.1308,-3.1225,-3.1225,-3.1225,0,0,-3.105,-3.1059,-3.1073,-3.1099,-3.1108,-3.1131,-3.1106,-3.1131,-3.1148,-3.1131,-3.1164,-3.1169,-3.1183,-3.1222,-3.1239,-3.1228,-3.1301,-3.1278,-3.1282,-3.1283,-3.1305,-3.1313,-3.132,-3.1227,-3.1227,-3.1227,0,0,-3.11,-3.1109,-3.1138,-3.1149,-3.1163,-3.1165,-3.1172,-3.1184,-3.1187,-3.122,-3.1208,-3.1228,-3.1264,-3.1274,-3.1284,-3.1341,-3.133,-3.1348,-3.1378,-3.1401,-3.1407,-3.1413,-3.1433,-3.144,-3.1352,-3.1352,-3.1352,0,-3.1124,-3.1158,-3.1154,-3.1181,-3.1193,-3.118,-3.1209,-3.122,-3.124,-3.1248,-3.1235,-3.1281,-3.1289,-3.1331,-3.1345,-3.1354,-3.1362,-3.1345,-3.1407,-3.1413,-3.1418,-3.1437,-3.1444,-3.1354,-3.1354,-3.1354,-3.1354,0,-3.1186,-3.1211,-3.1233,-3.1253,-3.1268,-3.1296,-3.1297,-3.1313,-3.1308,-3.1311,-3.1346,-3.1356,-3.1377,-3.1387,-3.1383,-3.1429,-3.1421,-3.1408,-3.1383,-3.1428,-3.1445,-3.1453,-3.1357,-3.1357,-3.1356,-3.1355,0,0,-3.125,-3.127,-3.1278,-3.1287,-3.1304,-3.1323,-3.1351,-3.1373,-3.1386,-3.1401,-3.1425,-3.1457,-3.1445,-3.1456,-3.1454,-3.1474,-3.1518,-3.1458,-3.1458,-3.1468,-3.1569,-3.1578,-3.1586,-3.1512,-3.1513,-3.1514,-3.1568,0,-3.1299,-3.1348,-3.1347,-3.1392,-3.1415,-3.1404,-3.1429,-3.1442,-3.1446,-3.1466,-3.1471,-3.1493,-3.1476,-3.1483,-3.1503,-3.1508,-3.1538,-3.1505,-3.1533,-3.1534,-3.1528,-3.1595,-3.1604,-3.1654,-3.1575,-3.1576,-3.1577,0,-3.1363,-3.1381,-3.1429,-3.1443,-3.1453,-3.1475,-3.1495,-3.1515,-3.153,-3.1532,-3.1546,-3.154,-3.157,-3.1546,-3.1587,-3.1564,-3.1576,-3.1581,-3.1583,-3.1583,-3.1557,-3.1597,-3.167,-3.1677,-3.1588,-3.1587,-3.1586,0,-3.1403,-3.144,-3.1473,-3.1482,-3.15,-3.1516,-3.1524,-3.1538,-3.1552,-3.157,-3.1579,-3.1601,-3.1612,-3.1629,-3.163,-3.1613,-3.1671,-3.1647,-3.1672,-3.1672,-3.1683,-3.1682,-3.1757,-3.1694,-3.1694,-3.1693,-3.1693,0,-3.1458,-3.1487,-3.1492,-3.1512,-3.1545,-3.1545,-3.1578,-3.1584,-3.1597,-3.1619,-3.1612,-3.1633,-3.1633,-3.1655,-3.1656,-3.1689,-3.1694,-3.1696,-3.1696,-3.1696,-3.1696,-3.1702,-3.1698,-3.1695,-3.1695,-3.1695,-3.1694,0,-3.1507,-3.1512,-3.1547,-3.1562,-3.1567,-3.1591,-3.1603,-3.1623,-3.1628,-3.1656,-3.1662,-3.1669,-3.1694,-3.1698,-3.1727,-3.1727,-3.1767,-3.1764,-3.1762,-3.1761,-3.1785,-3.1783,-3.1866,-3.1877,-3.1808,-3.1808,-3.1809,0,-3.1541,-3.1563,-3.1581,-3.1596,-3.1605,-3.1628,-3.1642,-3.1644,-3.1659,-3.1679,-3.1697,-3.1721,-3.174,-3.1781,-3.1789,-3.1812,-3.1808,-3.1836,-3.1811,-3.1811,-3.1807,-3.1805,-3.1807,-3.184,-3.1841,-3.1841,-3.1842,0,-3.16,-3.1601,-3.1622,-3.1645,-3.1662,-3.168,-3.1696,-3.1708,-3.1712,-3.1729,-3.1755,-3.177,-3.1801,-3.1825,-3.1848,-3.1857,-3.185,-3.185,-3.1857,-3.1856,-3.1854,-3.1854,-3.1773,-3.1847,-3.1847,-3.1846,-3.1846,-3.1846,-3.1641,-3.1661,-3.1677,-3.1701,-3.1714,-3.173,-3.175,-3.1758,-3.1779,-3.1804,-3.1804,-3.1832,-3.1849,-3.1879,-3.189,-3.1912,-3.1903,-3.1913,-3.1915,-3.1917,-3.1919,-3.1852,-3.1916,-3.1916,-3.1916,-3.1916,-3.1916,0,-3.1699,-3.1709,-3.1732,-3.1755,-3.1775,-3.1768,-3.1787,-3.1803,-3.1828,-3.1844,-3.1864,-3.1894,-3.1918,-3.1929,-3.1953,-3.1969,-3.1967,-3.1975,-3.1973,-3.1975,-3.1926,-3.1918,-3.1977,-3.1977,-3.1977,-3.1977,-3.1977,-3.1977,-3.1731,-3.1764,-3.1768,-3.1808,-3.1819,-3.1846,-3.1858,-3.1873,-3.1886,-3.192,-3.194,-3.1947,-3.1962,-3.1987,-3.2009,-3.2012,-3.2021,-3.2031,-3.2032,-3.1985,-3.1979,-3.1973,-3.1964,-3.2033,-3.2033,-3.2079,-3.2079,-3.2079]},{"header":{"parameterUnit":"m.s-1","parameterCategory":1,"la1":30.2991,"la2":30.254,"lo1":-89.0895,"lo2":-89.0444,"dy":0.0017,"dx":0.0017,"nx":28,"ny":28,"refTime":"2025-01-25T09:00:00:Z","depth":0,"parameterNumber":3,"parameterNumberName":"V-component_of_WINDS"},"data":[0,0,0,0,0,0,0,0,0,0,0,0,0,0,0,0,0,0,0,0,0,0,0,0,0,0,0,0,0,0,0,0,0,0,0,0,0,0,0,0,0,0,0,0,0,0,0,0,0,0,0,0,0,0,0,0,0,0,1.5002,1.5002,0,1.5002,1.5002,1.5002,1.5029,1.5029,1.503,1.5031,1.5029,1.5028,1.5028,0,0,0,0,0,0,0,0,0,0,0,0,0,1.5028,1.5027,1.5002,1.5002,1.5002,1.5002,1.5002,1.5002,1.5028,1.5029,1.503,1.5031,1.5029,1.5028,1.5027,0,0,0,0,0,0,0,0,0,0,0,0,0,1.5021,1.5027,1.5002,1.5016,1.5017,1.5002,1.5002,1.5002,1.5028,1.5029,1.503,1.5031,1.5029,1.5028,1.5027,1.4999,0,0,1.5024,1.5024,0,0,0,0,0,0,0,0,1.5021,1.502,1.5014,1.5015,1.5016,1.5016,1.501,1.5001,1.5028,1.5024,1.5031,1.5032,1.5024,1.5023,1.5021,1.4999,1.4999,1.5024,1.5023,1.5023,1.5023,0,0,0,0,0,0,0,1.5022,1.502,1.5002,1.5014,1.5015,1.5022,1.5022,1.5009,1.5018,1.5024,1.5026,1.5026,1.5025,1.5022,1.5021,1.4999,1.5024,1.5023,1.5022,1.5022,1.4959,1.4958,0,0,0,0,0,0,1.502,1.502,1.5002,1.5002,1.5021,1.5021,1.5021,1.5015,1.5018,1.502,1.5025,1.5027,1.5023,1.5022,1.5021,1.4991,1.5023,1.5022,1.5021,1.496,1.4958,1.4957,0,0,0,0,0,0,1.5021,1.5019,1.5002,1.5012,1.501,1.5019,1.5012,1.5015,1.5012,1.5019,1.502,1.502,1.5024,1.5022,1.5006,1.4991,1.5021,1.502,1.4961,1.4959,1.4958,1.4929,0,0,0,0,0,0,1.5022,1.5019,1.5007,1.5011,1.501,1.4986,1.5011,1.5014,1.501,1.5013,1.5015,1.5016,1.5025,1.5007,1.5004,1.499,1.502,1.4962,1.496,1.4958,1.4931,1.4926,1.4923,0,0,0,0,0,1.5022,1.4998,1.5007,1.5004,1.4996,1.4985,1.4984,1.4995,1.5009,1.4998,1.5003,1.5016,1.4993,1.5005,1.5002,1.4988,1.4963,1.4961,1.4958,1.4933,1.4927,1.4923,0,0,0,0,0,0,1.4991,1.4999,1.5008,1.4984,1.4984,1.499,1.4976,1.4988,1.4983,1.4986,1.4999,1.5,1.4981,1.4983,1.4996,1.4963,1.4981,1.4978,1.4962,1.4957,1.4953,1.4953,1.5019,0,0,0,0,0,1.4981,1.4972,1.4979,1.4958,1.4957,1.4967,1.4962,1.4971,1.4971,1.4971,1.4974,1.4974,1.4967,1.4962,1.4956,1.4932,1.4934,1.4921,1.4916,1.4913,1.491,1.4901,1.4896,1.495,1.495,1.495,0,0,1.4961,1.4964,1.4957,1.4951,1.4952,1.4943,1.4966,1.4954,1.4948,1.4969,1.4954,1.4957,1.4957,1.4937,1.4929,1.4938,1.4896,1.491,1.4907,1.4906,1.4898,1.4893,1.4888,1.4948,1.4948,1.4948,0,0,1.492,1.492,1.4904,1.4905,1.4907,1.4914,1.491,1.4915,1.4918,1.4903,1.4919,1.4912,1.4899,1.49,1.4898,1.4862,1.4874,1.4859,1.4837,1.4828,1.4823,1.482,1.4809,1.4804,1.4857,1.4857,1.4856,0,1.4894,1.4881,1.4894,1.4882,1.4881,1.49,1.4885,1.4885,1.4884,1.4883,1.4893,1.488,1.4881,1.4864,1.4855,1.4853,1.485,1.4859,1.4823,1.4819,1.4816,1.4806,1.4801,1.4855,1.4855,1.4855,1.4855,0,1.4851,1.4841,1.4828,1.4829,1.4825,1.4812,1.4824,1.4819,1.4829,1.4836,1.4822,1.4825,1.4821,1.4818,1.4826,1.4802,1.4808,1.482,1.4839,1.4809,1.48,1.4796,1.4852,1.4853,1.4854,1.4854,0,0,1.4787,1.4798,1.4793,1.4795,1.48,1.4793,1.4782,1.4779,1.4776,1.4775,1.4767,1.4758,1.477,1.4769,1.4778,1.477,1.4744,1.4784,1.4784,1.4778,1.472,1.4712,1.4707,1.4752,1.4751,1.4751,1.4721,0,1.4749,1.473,1.4744,1.4723,1.4716,1.4737,1.4727,1.473,1.4736,1.4732,1.4739,1.4733,1.4749,1.4749,1.4741,1.4748,1.4733,1.4751,1.4746,1.4746,1.4746,1.4702,1.4692,1.4663,1.4717,1.4717,1.4716,0,1.4701,1.4701,1.468,1.469,1.4687,1.4678,1.4679,1.4674,1.4679,1.4684,1.4684,1.4697,1.4688,1.4706,1.4695,1.4707,1.4706,1.471,1.4709,1.4709,1.4729,1.4702,1.4654,1.4651,1.471,1.4711,1.4711,0,1.466,1.4654,1.4642,1.4643,1.4653,1.4647,1.4651,1.4656,1.4655,1.4655,1.4655,1.4654,1.4654,1.4654,1.4666,1.4678,1.4654,1.4673,1.466,1.466,1.4654,1.4654,1.4606,1.4651,1.4651,1.4651,1.4652,0,1.4617,1.4604,1.4624,1.4616,1.4603,1.462,1.4606,1.4612,1.4618,1.4612,1.463,1.4624,1.4641,1.4638,1.4648,1.4639,1.4638,1.4643,1.4646,1.4642,1.4642,1.4642,1.4645,1.465,1.4651,1.4651,1.4651,0,1.4568,1.4581,1.457,1.4581,1.4584,1.4574,1.4585,1.4579,1.4588,1.4581,1.4581,1.4594,1.4592,1.4605,1.4604,1.4611,1.4598,1.4603,1.4596,1.4599,1.4586,1.4587,1.4537,1.4532,1.4579,1.4578,1.4578,0,1.454,1.4531,1.4543,1.4541,1.4545,1.4541,1.4541,1.4557,1.4557,1.4563,1.4557,1.4556,1.4557,1.4553,1.4563,1.4563,1.457,1.4553,1.457,1.4568,1.4572,1.4573,1.4573,1.4549,1.4548,1.4548,1.4547,0,1.449,1.4498,1.4497,1.4499,1.4499,1.4501,1.4504,1.4502,1.452,1.4518,1.4517,1.4518,1.4519,1.4519,1.4522,1.4527,1.4541,1.4542,1.4539,1.4536,1.4533,1.4536,1.4588,1.4543,1.4543,1.4544,1.4544,1.4544,1.4452,1.4446,1.4454,1.4454,1.4459,1.4462,1.4458,1.4468,1.4467,1.447,1.448,1.4478,1.4485,1.4491,1.4495,1.4494,1.4503,1.4498,1.4497,1.4496,1.4495,1.4533,1.4495,1.4495,1.4495,1.4495,1.4495,0,1.4404,1.4411,1.4411,1.4416,1.4416,1.443,1.4436,1.4435,1.4433,1.4439,1.444,1.444,1.4441,1.4453,1.4455,1.4453,1.4459,1.4453,1.4454,1.4455,1.4486,1.4489,1.4448,1.4448,1.4448,1.4448,1.4448,1.4448,1.4379,1.4371,1.438,1.4376,1.4383,1.4382,1.4384,1.4388,1.4394,1.4393,1.4395,1.4403,1.4411,1.4415,1.4418,1.4421,1.4422,1.4414,1.4419,1.4448,1.4453,1.4457,1.446,1.4413,1.4413,1.4389,1.4389,1.4389]}]]